Tracking 17154 objects as of 3-August-2015
HD Live streaming from Space Station

COSMOS 2230

Track COSMOS 2230 now!
10-day predictions
COSMOS 2230 is classified as:


NORAD ID: 22307
Int'l Code: 1993-001A
Perigee: 975.2 km
Apogee: 1,013.1 km
Inclination: 82.9 °
Period: 104.8 minutes
Semi major axis: 7365 km
RCS: 1.5931 m2 (large)
Launch date: January 12, 1993
Source: Commonwealth of Independent States (former USSR) (CIS)
Your satellite tracking list
Your tracking list is empty





NASA's NSSDC Master Catalog

Two Line Element Set (TLE):
1 22307U 93001A   15214.50458248  .00000021  00000-0  63505-5 0  9993
2 22307 082.9433 344.4863 0025745 060.5508 008.4662 13.73499115122121

Source of the keplerian elements: AFSPC

N2YO: 229